Tracking 30995 objects as of 5-Jul-2025
HD Live streaming from Space Station
objects crossing your sky now

FENGYUN 1C DEB

Track FENGYUN 1C DEB now!
10-day predictions


NORAD ID: 30661
Int'l Code: 1999-025APT
Perigee: 724.6 km
Apogee: 933.7 km
Inclination: 99.5 °
Period: 101.3 minutes
Semi major axis: 7200 km
RCS: 0.0103 m2 (small)
Launch date: May 10, 1999
Source: People's Republic of China (PRC)
Launch site: Taiyaun Space Center, China (TSC)

Note: This is SATELLITE DEBRIS
Your satellite tracking list
COSMOS 2215
Track 1 satellite(s)




NASA's NSSDC Master Catalog

Two Line Element Set (TLE):
1 30661U 99025APT 25185.38199012  .00000276  00000-0  13495-3 0  9995
2 30661  99.4779 349.2050 0145181 139.9526 221.2461 14.20992875956107
Source of the keplerian elements: AFSPC